When you browse on this site, cookies collect data to enhance your experience and personalize the content and advertising you see.
Visit our Privacy Policy to learn more. By continuing to use the site, you agree to this use of cookies and data.
  • In Romania
  • List of Countries
  • For 7 days
  • Water Temperature
  • Satellite Maps
  • Weather Map
  • Weather Widgets
  • user-avatar
    Login

    Hourly Weather Cleveland

    Today, 18 February, Monday

    Time Temperature Precipitation Wind Pressure Humidity
    00:00 -5°C° 0 mm 4 mps 746 mmHg 64%
    01:00 -7°C° 0 mm 4 mps 746 mmHg 62%
    02:00 -7°C° 0 mm 4 mps 746 mmHg 60%
    03:00 -7°C° 0 mm 5 mps 747 mmHg 59%
    04:00 -8°C° 0 mm 5 mps 747 mmHg 58%
    05:00 -8°C° 0 mm 5 mps 748 mmHg 57%
    06:00 -9°C° 0 mm 4 mps 749 mmHg 57%
    07:00 -8°C° 0 mm 4 mps 749 mmHg 55%
    08:00 -8°C° 0 mm 4 mps 750 mmHg 53%
    09:00 -7°C° 0 mm 5 mps 750 mmHg 50%
    10:00 -5°C° 0 mm 5 mps 750 mmHg 45%
    11:00 -4°C° 0 mm 5 mps 750 mmHg 39%
    12:00 -1°C° 0 mm 5 mps 750 mmHg 34%
    13:00 0°C° 0 mm 5 mps 750 mmHg 34%
    14:00 +1°C° 0 mm 5 mps 750 mmHg 33%
    15:00 +2°C° 0 mm 5 mps 749 mmHg 33%
    16:00 +1°C° 0 mm 4 mps 749 mmHg 38%
    17:00 0°C° 0 mm 4 mps 749 mmHg 42%
    18:00 -1°C° 0 mm 4 mps 749 mmHg 46%
    19:00 -2°C° 0 mm 4 mps 749 mmHg 49%
    20:00 -2°C° 0 mm 4 mps 750 mmHg 52%
    21:00 -4°C° 0 mm 5 mps 750 mmHg 55%
    22:00 -4°C° 0 mm 5 mps 750 mmHg 57%
    23:00 -4°C° 0 mm 5 mps 750 mmHg 60%

    Tomorrow, 19 February, Tuesday

    Time Temperature Precipitation Wind Pressure Humidity
    00:00 -4°C° 0 mm 6 mps 750 mmHg 63%
    01:00 -5°C° 0 mm 6 mps 749 mmHg 65%
    02:00 -5°C° 0 mm 6 mps 749 mmHg 68%
    03:00 -5°C° 0 mm 5 mps 749 mmHg 70%
    04:00 -5°C° 0 mm 5 mps 748 mmHg 71%
    05:00 -5°C° 0 mm 5 mps 748 mmHg 72%
    06:00 -5°C° 0 mm 5 mps 748 mmHg 73%
    07:00 -4°C° 0 mm 6 mps 748 mmHg 70%
    08:00 -4°C° 0 mm 6 mps 747 mmHg 68%
    09:00 -3°C° 0 mm 6 mps 747 mmHg 66%
    10:00 -3°C° 0 mm 6 mps 746 mmHg 63%
    11:00 -2°C° 0 mm 6 mps 746 mmHg 61%
    12:00 0°C° 0 mm 5 mps 745 mmHg 58%
    13:00 -1°C° 2.1 mm 5 mps 744 mmHg 71%
    14:00 -1°C° 2.1 mm 4 mps 743 mmHg 83%
    15:00 -1°C° 2.1 mm 3 mps 742 mmHg 96%
    16:00 -2°C° 1 mm 4 mps 741 mmHg 96%
    17:00 -2°C° 1 mm 4 mps 741 mmHg 96%
    18:00 -1°C° 1 mm 5 mps 740 mmHg 96%
    19:00 -1°C° 0.2 mm 5 mps 739 mmHg 97%
    20:00 -1°C° 0.2 mm 4 mps 739 mmHg 98%
    21:00 -1°C° 0.2 mm 4 mps 738 mmHg 99%
    22:00 0°C° 0.2 mm 3 mps 737 mmHg 99%
    23:00 +1°C° 0.2 mm 2 mps 737 mmHg 99%

    Day after tomorrow, 20 February, Wednesday

    Time Temperature Precipitation Wind Pressure Humidity
    00:00 +2°C° 0.2 mm 1 mps 736 mmHg 100%
    01:00 +1°C° 0.1 mm 2 mps 736 mmHg 99%
    02:00 +1°C° 0.1 mm 2 mps 735 mmHg 99%
    03:00 +1°C° 0.1 mm 2 mps 735 mmHg 99%
    04:00 +1°C° 0 mm 2 mps 735 mmHg 99%
    05:00 +1°C° 0 mm 2 mps 735 mmHg 99%
    06:00 -1°C° 0 mm 3 mps 735 mmHg 99%
    07:00 0°C° 0 mm 3 mps 735 mmHg 98%
    08:00 0°C° 0 mm 3 mps 735 mmHg 98%
    09:00 -1°C° 0 mm 4 mps 735 mmHg 98%
    10:00 0°C° 0 mm 4 mps 735 mmHg 97%
    11:00 0°C° 0 mm 4 mps 735 mmHg 96%
    12:00 0°C° 0 mm 5 mps 735 mmHg 95%
    13:00 +1°C° 0 mm 5 mps 735 mmHg 92%
    14:00 +2°C° 0 mm 5 mps 735 mmHg 89%
    15:00 +2°C° 0 mm 5 mps 735 mmHg 86%
    16:00 +3°C° 0 mm 4 mps 736 mmHg 86%
    17:00 +2°C° 0 mm 3 mps 736 mmHg 86%
    18:00 +3°C° 0 mm 2 mps 737 mmHg 86%
    19:00 +2°C° 0 mm 2 mps 737 mmHg 88%
    20:00 +1°C° 0 mm 2 mps 738 mmHg 89%
    21:00 -1°C° 0 mm 2 mps 739 mmHg 90%
    22:00 +1°C° 0 mm 1 mps 739 mmHg 90%
    23:00 0°C° 0 mm 1 mps 740 mmHg 90%

    21 February, Thursday

    Time Temperature Precipitation Wind Pressure Humidity
    00:00 -1°C° 0 mm 0 mps 740 mmHg 89%
    01:00 0°C° 0 mm 1 mps 740 mmHg 89%
    02:00 +1°C° 0 mm 1 mps 740 mmHg 89%
    03:00 -1°C° 0 mm 2 mps 740 mmHg 89%
    04:00 -1°C° 0 mm 2 mps 741 mmHg 89%
    05:00 -1°C° 0 mm 2 mps 741 mmHg 89%
    06:00 -1°C° 0 mm 2 mps 741 mmHg 90%
    07:00 -1°C° 0 mm 3 mps 742 mmHg 88%
    08:00 0°C° 0 mm 3 mps 742 mmHg 87%
    09:00 +1°C° 0 mm 3 mps 743 mmHg 85%
    10:00 +2°C° 0 mm 3 mps 743 mmHg 82%
    11:00 +3°C° 0 mm 4 mps 743 mmHg 79%
    12:00 +5°C° 0 mm 4 mps 743 mmHg 75%
    13:00 +6°C° 0 mm 4 mps 742 mmHg 72%
    14:00 +7°C° 0 mm 4 mps 741 mmHg 68%
    15:00 +8°C° 0 mm 5 mps 740 mmHg 65%
    16:00 +7°C° 0 mm 4 mps 740 mmHg 68%
    17:00 +8°C° 0 mm 3 mps 740 mmHg 72%
    18:00 +7°C° 0 mm 3 mps 740 mmHg 75%
    19:00 +5°C° 0 mm 3 mps 740 mmHg 78%
    20:00 +4°C° 0 mm 3 mps 741 mmHg 80%
    21:00 +3°C° 0 mm 3 mps 741 mmHg 83%
    22:00 +3°C° 0 mm 3 mps 741 mmHg 84%
    23:00 +3°C° 0 mm 3 mps 741 mmHg 85%

    22 February, Friday

    Time Temperature Precipitation Wind Pressure Humidity
    00:00 +3°C° 0 mm 3 mps 741 mmHg 86%
    01:00 +2°C° 0 mm 3 mps 741 mmHg 87%
    02:00 +2°C° 0 mm 3 mps 741 mmHg 88%
    03:00 +2°C° 0 mm 3 mps 741 mmHg 89%
    04:00 +1°C° 0 mm 3 mps 741 mmHg 90%
    05:00 +1°C° 0 mm 3 mps 741 mmHg 90%
    06:00 +1°C° 0 mm 3 mps 741 mmHg 91%
    07:00 +2°C° 0 mm 3 mps 741 mmHg 91%
    08:00 +3°C° 0 mm 3 mps 741 mmHg 91%
    09:00 +3°C° 0 mm 3 mps 742 mmHg 91%
    10:00 +4°C° 0.1 mm 3 mps 741 mmHg 91%
    11:00 +5°C° 0.1 mm 3 mps 741 mmHg 91%
    12:00 +5°C° 0.1 mm 3 mps 741 mmHg 91%
    13:00 +7°C° 0.1 mm 3 mps 740 mmHg 92%
    14:00 +7°C° 0.1 mm 3 mps 739 mmHg 92%
    15:00 +7°C° 0.1 mm 3 mps 739 mmHg 93%
    16:00 +7°C° 0 mm 4 mps 738 mmHg 94%
    17:00 +7°C° 0 mm 4 mps 738 mmHg 94%
    18:00 +8°C° 0 mm 4 mps 738 mmHg 95%
    19:00 +9°C° 0.3 mm 3 mps 738 mmHg 96%
    20:00 +9°C° 0.3 mm 3 mps 738 mmHg 96%
    21:00 +9°C° 0.3 mm 2 mps 738 mmHg 97%
    22:00 +9°C° 0 mm 2 mps 738 mmHg 97%
    23:00 +10°C° 0 mm 2 mps 737 mmHg 98%

    23 February, Saturday

    Time Temperature Precipitation Wind Pressure Humidity
    00:00 +10°C° 0 mm 3 mps 737 mmHg 98%
    01:00 +10°C° 0.1 mm 3 mps 737 mmHg 98%
    02:00 +10°C° 0.1 mm 3 mps 736 mmHg 98%
    03:00 +11°C° 0.1 mm 3 mps 736 mmHg 98%
    04:00 +12°C° 0 mm 2 mps 736 mmHg 98%
    05:00 +12°C° 0 mm 2 mps 736 mmHg 98%
    06:00 +12°C° 0 mm 2 mps 735 mmHg 98%
    07:00 +12°C° 0.5 mm 2 mps 735 mmHg 98%
    08:00 +13°C° 0.5 mm 2 mps 735 mmHg 98%
    09:00 +13°C° 0.5 mm 2 mps 734 mmHg 98%
    10:00 +13°C° 2.9 mm 2 mps 733 mmHg 98%
    11:00 +12°C° 2.9 mm 3 mps 733 mmHg 98%
    12:00 +13°C° 2.9 mm 3 mps 732 mmHg 98%
    13:00 +14°C° 0.5 mm 3 mps 731 mmHg 95%
    14:00 +15°C° 0.5 mm 4 mps 729 mmHg 92%
    15:00 +17°C° 0.5 mm 5 mps 728 mmHg 89%
    16:00 +18°C° 0.7 mm 4 mps 728 mmHg 83%
    17:00 +18°C° 0.7 mm 3 mps 727 mmHg 78%
    18:00 +17°C° 0.7 mm 3 mps 727 mmHg 73%
    19:00 +15°C° 0 mm 5 mps 727 mmHg 64%
    20:00 +15°C° 0 mm 6 mps 727 mmHg 56%
    21:00 +13°C° 0 mm 8 mps 727 mmHg 48%
    22:00 +11°C° 0 mm 9 mps 728 mmHg 58%
    23:00 +8°C° 0 mm 10 mps 729 mmHg 67%
    Show more